Home > Weather > Konya > Past weeks

Flag for Turkey Weather for the Past 2 Weeks in Konya, Turkey

Now
57 °F

Passing clouds.


Feels Like: 56 °F
Forecast: 48 / 73 °F
Wind: 6 mph from Northwest

Location: Konya Airport

Current Time: May 2, 2016 at 11:30:26 PM

Latest Report: May 2, 2016 at 10:50 PM


Visibility: N/A

Pressure: 29.92 "Hg (26.43 "Hg at 1041m altitude)

Humidity: 77%

Dew Point: 50 °F

Location of KonyaLocation

Historic Weather in Konya — Graph

°F

Konya Temperature Yesterday

Maximum temperature yesterday: 70 °F (at 1:50 PM)
Minimum temperature yesterday: 50 °F (at 4:50 AM)
Average temperature yesterday: 61 °F

High & Low Weather Summary for the Past Weeks

 TemperatureHumidityPressure
High82 °F (Apr 20, 1:50 PM)88% (May 1, 4:50 AM)30.24 "Hg (May 1, 4:50 AM)
Low37 °F (Apr 22, 5:50 AM)8% (Apr 23, 4:50 PM)29.65 "Hg (Apr 25, 1:50 AM)
Average60 °F37%29.99 "Hg
* Reported Apr 17 9:50 PM — May 2 9:50 PM, Konya, Weather by CustomWeather, © 2016

Note: Actual official high and low records may vary slightly from our data, if they occured in-between our weather recording intervals... More about our weather records

Advertising

Konya Weather History for the Previous 24 Hours

Scroll right to see more
 ConditionsComfort  
Time TempWeatherWind HumidityBarometerVisibility
9:50 PM
Mon, May 2
63 °FPartly cloudy.7 mph56%29.92 "HgN/A
8:50 PM66 °FPartly cloudy.6 mph46%29.92 "HgN/A
7:50 PM66 °FBroken clouds.3 mph52%29.89 "HgN/A
7:01 PM68 °FBroken clouds.10 mph40%29.89 "HgN/A
6:50 PM72 °FSprinkles. Broken clouds.3 mph31%29.89 "HgN/A
5:50 PM72 °FBroken clouds.No wind31%29.89 "HgN/A
4:50 PM73 °FBroken clouds.7 mph29%29.92 "HgN/A
3:50 PM73 °FBroken clouds.7 mph27%29.92 "HgN/A
2:50 PM73 °FBroken clouds.12 mph27%29.92 "HgN/A
1:50 PM73 °FPartly sunny.10 mph27%29.95 "HgN/A
12:50 PM73 °FPartly sunny.8 mph25%29.95 "HgN/A
11:50 AM72 °FPartly sunny.8 mph29%29.98 "HgN/A
10:50 AM68 °FPartly sunny.6 mph30%30.01 "HgN/A
9:50 AM66 °FPartly sunny.5 mph32%30.01 "HgN/A
8:50 AM63 °FPartly sunny.8 mph39%29.98 "HgN/A
7:50 AM59 °FSunny.9 mph45%30.01 "Hg10 mi
6:50 AM54 °FClear.8 mph54%29.98 "Hg10 mi
5:50 AM54 °FClear.6 mph51%29.98 "Hg10 mi
4:50 AM52 °FClear.5 mph54%29.98 "Hg10 mi
3:50 AM54 °FClear.6 mph51%29.98 "Hg10 mi
2:50 AM55 °FClear.5 mph47%29.98 "Hg10 mi
1:50 AM55 °FClear.8 mph51%29.98 "Hg10 mi
12:50 AM57 °FClear.9 mph48%29.98 "Hg10 mi
11:50 PM
Sun, May 1
59 °FClear.9 mph45%30.01 "Hg10 mi
Weather by CustomWeather, © 2016

See weather overviewHow to use our weather pages